BAH242 SKRG-SAEZ

Flight info

Callsign BAH242
Flight time 6h 3m
Altitude 35000
Route DABID3B DABID DCT RNG UP530 BOG UL300 IQT UM776 JUJ UT672 MULTA UW24 SNT SNT7U
Aircraft B738/M-SDE2E3FGHIRWXY/LB1

Departure

Time 2026-04-30 05:51
Airport Jose Maria Córdova International Airport (SKRG)

Arrival

Time 2026-04-30 11:54
Airport Ezeiza International Airport - Ministro Pistarini (SAEZ)
Time Latitude Longitude Altitude Speed Heading
2026-04-30 05:31 6.17297 -75.42774 7015 ft 0 kts 213°
2026-04-30 05:37 6.17304 -75.42769 7020 ft 4 kts 212°
2026-04-30 05:37 6.17328 -75.42756 7015 ft 4 kts 201°
2026-04-30 05:37 6.17353 -75.42750 7015 ft 4 kts 180°
2026-04-30 05:37 6.17376 -75.42755 7015 ft 4 kts 129°
2026-04-30 05:38 6.17381 -75.42763 7015 ft 0 kts 120°
2026-04-30 05:41 6.17370 -75.42743 7017 ft 6 kts 121°
2026-04-30 05:42 6.17347 -75.42707 7015 ft 6 kts 122°
2026-04-30 05:42 6.17319 -75.42668 7015 ft 7 kts 132°
2026-04-30 05:42 6.17282 -75.42630 7017 ft 8 kts 137°
2026-04-30 05:42 6.17227 -75.42619 7019 ft 9 kts 178°
2026-04-30 05:43 6.17165 -75.42617 7017 ft 9 kts 178°
2026-04-30 05:43 6.17097 -75.42613 7020 ft 10 kts 171°
2026-04-30 05:43 6.17037 -75.42586 7016 ft 10 kts 150°
2026-04-30 05:43 6.16977 -75.42550 7016 ft 10 kts 149°
2026-04-30 05:44 6.16910 -75.42511 7015 ft 12 kts 149°
2026-04-30 05:44 6.16825 -75.42485 7014 ft 14 kts 178°
2026-04-30 05:44 6.16716 -75.42484 7012 ft 17 kts 179°
2026-04-30 05:44 6.16582 -75.42483 6999 ft 21 kts 179°
2026-04-30 05:45 6.16426 -75.42483 6990 ft 21 kts 180°
2026-04-30 05:45 6.16269 -75.42483 6984 ft 24 kts 180°
2026-04-30 05:45 6.16097 -75.42482 6981 ft 25 kts 179°
2026-04-30 05:45 6.15917 -75.42481 6981 ft 26 kts 179°
2026-04-30 05:46 6.15741 -75.42479 6979 ft 25 kts 179°
2026-04-30 05:46 6.15574 -75.42478 6978 ft 23 kts 179°
2026-04-30 05:46 6.15415 -75.42477 6978 ft 22 kts 179°
2026-04-30 05:46 6.15261 -75.42476 6977 ft 22 kts 179°
2026-04-30 05:47 6.15112 -75.42474 6977 ft 21 kts 179°
2026-04-30 05:47 6.14988 -75.42473 6976 ft 14 kts 179°
2026-04-30 05:47 6.14940 -75.42472 6976 ft 9 kts 174°
2026-04-30 05:47 6.14902 -75.42432 6976 ft 7 kts 101°
2026-04-30 05:48 6.14901 -75.42420 6976 ft 1 kts 93°
2026-04-30 05:48 6.14901 -75.42418 6976 ft 0 kts 93°
2026-04-30 05:48 6.14901 -75.42416 6976 ft 1 kts 93°
2026-04-30 05:49 6.14900 -75.42402 6976 ft 4 kts 91°
2026-04-30 05:49 6.14903 -75.42373 6976 ft 7 kts 76°
2026-04-30 05:49 6.14927 -75.42332 6974 ft 7 kts 55°
2026-04-30 05:49 6.14965 -75.42306 6976 ft 7 kts
2026-04-30 05:50 6.15038 -75.42303 6977 ft 29 kts
2026-04-30 05:50 6.15477 -75.42308 6980 ft 96 kts 359°
2026-04-30 05:50 6.16351 -75.42312 6983 ft 153 kts 360°
2026-04-30 05:50 6.17567 -75.42324 7147 ft 187 kts 358°
2026-04-30 05:51 6.18842 -75.42355 7946 ft 185 kts 359°
2026-04-30 05:51 6.20181 -75.42377 8511 ft 200 kts 358°
2026-04-30 05:51 6.21598 -75.42431 8927 ft 212 kts 359°
2026-04-30 05:51 6.23120 -75.42423 9077 ft 231 kts
2026-04-30 05:52 6.24797 -75.42402 9244 ft 251 kts
2026-04-30 05:52 6.26624 -75.42393 9395 ft 275 kts
2026-04-30 05:52 6.28613 -75.42396 9702 ft 293 kts
2026-04-30 05:52 6.30670 -75.42406 10412 ft 295 kts
2026-04-30 05:53 6.32724 -75.42417 11217 ft 297 kts
2026-04-30 05:53 6.34816 -75.42414 11799 ft 305 kts
2026-04-30 05:53 6.36960 -75.42393 12354 ft 310 kts
2026-04-30 05:53 6.39092 -75.42367 13076 ft 311 kts
2026-04-30 05:54 6.41263 -75.42478 13703 ft 317 kts 347°
2026-04-30 05:54 6.43268 -75.43412 14318 ft 323 kts 322°
2026-04-30 05:54 6.44752 -75.45107 14966 ft 327 kts 302°
2026-04-30 05:54 6.45893 -75.47099 15578 ft 331 kts 299°
2026-04-30 05:55 6.47026 -75.49136 15872 ft 335 kts 300°
2026-04-30 05:55 6.48176 -75.51173 15865 ft 334 kts 298°
2026-04-30 05:55 6.48925 -75.53376 15872 ft 335 kts 275°
2026-04-30 05:55 6.48770 -75.55697 15873 ft 335 kts 252°
2026-04-30 05:56 6.47741 -75.57727 16179 ft 330 kts 230°
2026-04-30 05:56 6.46064 -75.59288 16702 ft 332 kts 208°
2026-04-30 05:56 6.44009 -75.60367 17158 ft 339 kts 203°
2026-04-30 05:56 6.41827 -75.61389 17412 ft 352 kts 202°
2026-04-30 05:57 6.39560 -75.62426 17680 ft 365 kts 202°
2026-04-30 05:57 6.37210 -75.63504 17899 ft 378 kts 202°
2026-04-30 05:57 6.34803 -75.64624 18278 ft 385 kts 202°
2026-04-30 05:57 6.32371 -75.65766 18840 ft 386 kts 202°
2026-04-30 05:58 6.29932 -75.66918 19392 ft 388 kts 203°
2026-04-30 05:58 6.27480 -75.68082 19902 ft 391 kts 203°
2026-04-30 05:58 6.25043 -75.69239 20368 ft 394 kts 203°
2026-04-30 05:58 6.22553 -75.70418 20851 ft 396 kts 203°
2026-04-30 05:59 6.20050 -75.71605 21305 ft 400 kts 203°
2026-04-30 05:59 6.17527 -75.72799 21753 ft 402 kts 203°
2026-04-30 05:59 6.14987 -75.74003 22192 ft 404 kts 203°
2026-04-30 05:59 6.12431 -75.75216 22582 ft 408 kts 203°
2026-04-30 06:00 6.09789 -75.76233 22925 ft 407 kts 188°
2026-04-30 06:00 6.06986 -75.76367 23339 ft 403 kts 170°
2026-04-30 06:00 6.04317 -75.75600 23742 ft 400 kts 152°
2026-04-30 06:00 6.02053 -75.74066 24091 ft 399 kts 135°
2026-04-30 06:01 6.00342 -75.71872 24393 ft 401 kts 118°
2026-04-30 06:01 5.99316 -75.69266 24607 ft 407 kts 102°
2026-04-30 06:01 5.99031 -75.66410 24717 ft 415 kts 93°
2026-04-30 06:01 5.98938 -75.63503 25042 ft 417 kts 92°
2026-04-30 06:02 5.98861 -75.60594 25405 ft 418 kts 92°
2026-04-30 06:02 5.98771 -75.57669 25725 ft 420 kts 92°
2026-04-30 06:02 5.98661 -75.54728 26011 ft 423 kts 93°
2026-04-30 06:02 5.98537 -75.51772 26334 ft 424 kts 93°
2026-04-30 06:03 5.98409 -75.48843 26630 ft 426 kts 93°
2026-04-30 06:03 5.98235 -75.45867 26904 ft 428 kts 99°
2026-04-30 06:03 5.97360 -75.43011 27143 ft 430 kts 117°
2026-04-30 06:03 5.95683 -75.40531 27418 ft 431 kts 133°
2026-04-30 06:04 5.93379 -75.38603 27699 ft 433 kts 146°
2026-04-30 06:04 5.90848 -75.36962 28015 ft 434 kts 147°
2026-04-30 06:04 5.88273 -75.35356 28245 ft 437 kts 148°
2026-04-30 06:05 5.83070 -75.32121 28741 ft 441 kts 148°
2026-04-30 06:05 5.80497 -75.30500 29000 ft 443 kts 147°
2026-04-30 06:05 5.77882 -75.28840 29190 ft 446 kts 147°
2026-04-30 06:05 5.75256 -75.27163 29423 ft 449 kts 147°
2026-04-30 06:06 5.72621 -75.25475 29667 ft 450 kts 147°
2026-04-30 06:06 5.69977 -75.23779 29901 ft 452 kts 147°
2026-04-30 06:06 5.67324 -75.22078 30114 ft 454 kts 147°
2026-04-30 06:06 5.64657 -75.20368 30334 ft 456 kts 147°
2026-04-30 06:07 5.61981 -75.18653 30557 ft 457 kts 147°
2026-04-30 06:07 5.59333 -75.16957 30770 ft 459 kts 147°
2026-04-30 06:07 5.56637 -75.15231 30977 ft 460 kts 147°
2026-04-30 06:07 5.53936 -75.13501 31167 ft 462 kts 147°
2026-04-30 06:08 5.51225 -75.11766 31354 ft 463 kts 147°
2026-04-30 06:08 5.48506 -75.10024 31594 ft 464 kts 147°
2026-04-30 06:08 5.45792 -75.08286 31892 ft 462 kts 147°
2026-04-30 06:08 5.43087 -75.06555 32187 ft 461 kts 147°
2026-04-30 06:09 5.40375 -75.04818 32430 ft 461 kts 148°
2026-04-30 06:09 5.37671 -75.03088 32672 ft 461 kts 148°
2026-04-30 06:09 5.35005 -75.01382 32951 ft 460 kts 148°
2026-04-30 06:09 5.32305 -74.99654 33234 ft 459 kts 148°
2026-04-30 06:10 5.29615 -74.97933 33499 ft 459 kts 148°
2026-04-30 06:10 5.26918 -74.96207 33751 ft 459 kts 148°
2026-04-30 06:10 5.24230 -74.94486 34015 ft 459 kts 147°
2026-04-30 06:10 5.21692 -74.92544 34270 ft 459 kts 137°
2026-04-30 06:11 5.19486 -74.90237 34491 ft 459 kts 129°
2026-04-30 06:11 5.17657 -74.87611 34675 ft 460 kts 122°
2026-04-30 06:11 5.16018 -74.84854 34885 ft 460 kts 121°
2026-04-30 06:12 5.12797 -74.79318 34919 ft 463 kts 121°
2026-04-30 06:12 5.09534 -74.73777 34928 ft 459 kts 121°
2026-04-30 06:13 5.06263 -74.68296 34955 ft 456 kts 122°
2026-04-30 06:13 5.02999 -74.62851 34980 ft 455 kts 122°
2026-04-30 06:14 4.99769 -74.57460 35007 ft 454 kts 122°
2026-04-30 06:14 4.96517 -74.52030 35054 ft 454 kts 122°
2026-04-30 06:15 4.93263 -74.46595 35110 ft 455 kts 122°
2026-04-30 06:15 4.89995 -74.41137 35156 ft 458 kts 122°
2026-04-30 06:16 4.86672 -74.35729 35174 ft 460 kts 130°
2026-04-30 06:16 4.84363 -74.33547 35230 ft 457 kts 147°
2026-04-30 06:16 4.81556 -74.32073 35219 ft 455 kts 163°
2026-04-30 06:17 4.75345 -74.31008 35279 ft 455 kts 175°
2026-04-30 06:17 4.69035 -74.30355 35283 ft 457 kts 175°
2026-04-30 06:18 4.62692 -74.29669 35273 ft 460 kts 174°
2026-04-30 06:18 4.56374 -74.28935 35268 ft 461 kts 174°
2026-04-30 06:19 4.50009 -74.28176 35251 ft 460 kts 174°
2026-04-30 06:19 4.43795 -74.27434 35234 ft 460 kts 174°
2026-04-30 06:20 4.37493 -74.26682 35208 ft 458 kts 174°
2026-04-30 06:20 4.31176 -74.25931 35198 ft 457 kts 174°
2026-04-30 06:21 4.25066 -74.25205 35167 ft 456 kts 174°
2026-04-30 06:21 4.18766 -74.24456 35152 ft 455 kts 174°
2026-04-30 06:22 4.12475 -74.23709 35132 ft 455 kts 174°
2026-04-30 06:22 4.06252 -74.22968 35168 ft 453 kts 174°
2026-04-30 06:23 3.99985 -74.22224 35092 ft 454 kts 174°
2026-04-30 06:23 3.93695 -74.21476 34997 ft 456 kts 174°
2026-04-30 06:24 3.87386 -74.20738 34963 ft 456 kts 174°
2026-04-30 06:24 3.81088 -74.20006 34953 ft 456 kts 174°
2026-04-30 06:25 3.74835 -74.19281 34949 ft 455 kts 174°
2026-04-30 06:25 3.68548 -74.18552 34956 ft 455 kts 174°
2026-04-30 06:26 3.62257 -74.17821 34949 ft 455 kts 174°
2026-04-30 06:26 3.55962 -74.17087 34958 ft 456 kts 174°
2026-04-30 06:27 3.49695 -74.16357 34959 ft 457 kts 174°
2026-04-30 06:27 3.43378 -74.15624 34950 ft 457 kts 174°
2026-04-30 06:28 3.37053 -74.14889 34945 ft 458 kts 174°
2026-04-30 06:28 3.30726 -74.14154 34952 ft 458 kts 174°
2026-04-30 06:29 3.24438 -74.13422 34940 ft 458 kts 174°
2026-04-30 06:29 3.18105 -74.12687 34946 ft 458 kts 174°
2026-04-30 06:30 3.11771 -74.11952 34945 ft 459 kts 174°
2026-04-30 06:30 3.05429 -74.11216 34940 ft 458 kts 174°
2026-04-30 06:31 2.99102 -74.10480 34987 ft 458 kts 174°
2026-04-30 06:31 2.92818 -74.09750 34984 ft 458 kts 174°
2026-04-30 06:32 2.86477 -74.09014 34943 ft 459 kts 174°
2026-04-30 06:32 2.80135 -74.08277 34936 ft 459 kts 174°
2026-04-30 06:33 2.73796 -74.07541 34926 ft 458 kts 174°
2026-04-30 06:33 2.67505 -74.06811 34924 ft 458 kts 174°
2026-04-30 06:34 2.61182 -74.06077 34926 ft 457 kts 174°
2026-04-30 06:34 2.54859 -74.05343 34924 ft 457 kts 174°
2026-04-30 06:35 2.48543 -74.04611 34914 ft 457 kts 175°
2026-04-30 06:35 2.42229 -74.03877 34917 ft 456 kts 175°
2026-04-30 06:36 2.35961 -74.03150 34918 ft 457 kts 175°
2026-04-30 06:36 2.29649 -74.02417 34918 ft 457 kts 175°
2026-04-30 06:37 2.23335 -74.01684 34918 ft 457 kts 175°
2026-04-30 06:37 2.17060 -74.00958 34917 ft 457 kts 175°
2026-04-30 06:38 2.10744 -74.00226 34918 ft 457 kts 175°
2026-04-30 06:38 2.04427 -73.99493 34915 ft 457 kts 175°
2026-04-30 06:39 1.98109 -73.98760 34919 ft 457 kts 175°
2026-04-30 06:39 1.91792 -73.98029 34913 ft 457 kts 175°
2026-04-30 06:40 1.85472 -73.97295 34918 ft 457 kts 175°
2026-04-30 06:40 1.79197 -73.96567 34916 ft 457 kts 174°
2026-04-30 06:41 1.72872 -73.95833 34919 ft 457 kts 174°
2026-04-30 06:41 1.66557 -73.95103 34914 ft 457 kts 174°
2026-04-30 06:42 1.60241 -73.94370 34918 ft 457 kts 174°
2026-04-30 06:42 1.53965 -73.93640 34923 ft 457 kts 174°
2026-04-30 06:43 1.47646 -73.92908 34931 ft 458 kts 174°
2026-04-30 06:43 1.41310 -73.92175 34927 ft 458 kts 174°
2026-04-30 06:44 1.34973 -73.91441 34926 ft 459 kts 174°
2026-04-30 06:44 1.28671 -73.90711 34931 ft 458 kts 174°
2026-04-30 06:45 1.22365 -73.89964 34913 ft 456 kts 174°
2026-04-30 06:45 1.16053 -73.89239 34934 ft 457 kts 174°
2026-04-30 06:46 1.09718 -73.88511 34928 ft 459 kts 174°
2026-04-30 06:46 1.03355 -73.87777 34927 ft 461 kts 174°
2026-04-30 06:47 0.97007 -73.87042 34929 ft 463 kts 174°
2026-04-30 06:47 0.90599 -73.86299 34926 ft 464 kts 173°
2026-04-30 06:48 0.84177 -73.85556 34926 ft 465 kts 173°
2026-04-30 06:48 0.77792 -73.84814 34923 ft 465 kts 173°
2026-04-30 06:49 0.71357 -73.84068 34925 ft 465 kts 173°
2026-04-30 06:49 0.64932 -73.83324 34925 ft 465 kts 173°
2026-04-30 06:50 0.58511 -73.82581 34924 ft 464 kts 173°
2026-04-30 06:50 0.52092 -73.81838 34917 ft 464 kts 173°
2026-04-30 06:51 0.45722 -73.81101 34926 ft 464 kts 173°
2026-04-30 06:51 0.39319 -73.80358 34954 ft 463 kts 173°
2026-04-30 06:52 0.32920 -73.79616 34964 ft 463 kts 173°
2026-04-30 06:52 0.26521 -73.78876 34961 ft 463 kts 173°
2026-04-30 06:53 0.20159 -73.78139 34964 ft 464 kts 173°
2026-04-30 06:53 0.13747 -73.77395 34961 ft 464 kts 173°
2026-04-30 06:54 0.07334 -73.76654 34966 ft 464 kts 173°
2026-04-30 06:54 0.00909 -73.75909 34962 ft 465 kts 173°
2026-04-30 06:55 -0.05479 -73.75168 34964 ft 465 kts 173°
2026-04-30 06:55 -0.11913 -73.74423 34963 ft 466 kts 173°
2026-04-30 06:56 -0.18355 -73.73677 34948 ft 466 kts 173°
2026-04-30 06:56 -0.24804 -73.72930 34926 ft 467 kts 173°
2026-04-30 06:57 -0.31209 -73.72188 34911 ft 467 kts 173°
2026-04-30 06:57 -0.37654 -73.71441 34903 ft 466 kts 173°
2026-04-30 06:58 -0.44096 -73.70695 34908 ft 466 kts 173°
2026-04-30 06:58 -0.50526 -73.69951 34906 ft 465 kts 173°
2026-04-30 06:59 -0.56910 -73.69211 34907 ft 464 kts 173°
2026-04-30 06:59 -0.63321 -73.68468 34903 ft 463 kts 173°
2026-04-30 07:00 -0.69722 -73.67727 34910 ft 463 kts 173°
2026-04-30 07:00 -0.76124 -73.66984 34905 ft 463 kts 173°
2026-04-30 07:01 -0.82522 -73.66244 34910 ft 463 kts 173°
2026-04-30 07:01 -0.88887 -73.65506 34908 ft 464 kts 173°
2026-04-30 07:02 -0.95297 -73.64766 34906 ft 464 kts 173°
2026-04-30 07:02 -1.01707 -73.64022 34909 ft 464 kts 173°
2026-04-30 07:03 -1.08127 -73.63276 34906 ft 465 kts 173°
2026-04-30 07:03 -1.14511 -73.62537 34900 ft 465 kts 173°
2026-04-30 07:04 -1.20945 -73.61794 34898 ft 466 kts 173°
2026-04-30 07:04 -1.27384 -73.61047 34893 ft 466 kts 173°
2026-04-30 07:05 -1.37059 -73.59924 34888 ft 467 kts 173°
2026-04-30 07:05 -1.43476 -73.59180 34890 ft 467 kts 173°
2026-04-30 07:06 -1.49944 -73.58431 34888 ft 468 kts 173°
2026-04-30 07:06 -1.56408 -73.57682 34889 ft 468 kts 173°
2026-04-30 07:07 -1.62824 -73.56938 34885 ft 468 kts 173°
2026-04-30 07:07 -1.69290 -73.56188 34890 ft 468 kts 173°
2026-04-30 07:08 -1.75754 -73.55439 34887 ft 468 kts 173°
2026-04-30 07:08 -1.82225 -73.54688 34890 ft 468 kts 173°
2026-04-30 07:09 -1.88691 -73.53939 34886 ft 468 kts 173°
2026-04-30 07:09 -1.95110 -73.53195 34888 ft 468 kts 173°
2026-04-30 07:10 -2.01570 -73.52445 34890 ft 467 kts 173°
2026-04-30 07:10 -2.08038 -73.51696 34888 ft 468 kts 173°
2026-04-30 07:11 -2.14501 -73.50945 34889 ft 468 kts 173°
2026-04-30 07:11 -2.20964 -73.50194 34889 ft 467 kts 173°
2026-04-30 07:12 -2.27384 -73.49449 34887 ft 468 kts 173°
2026-04-30 07:12 -2.33847 -73.48699 34889 ft 467 kts 173°
2026-04-30 07:13 -2.40307 -73.47949 34887 ft 467 kts 173°
2026-04-30 07:13 -2.46720 -73.47205 34893 ft 466 kts 173°
2026-04-30 07:14 -2.53161 -73.46459 34886 ft 466 kts 173°
2026-04-30 07:14 -2.59598 -73.45712 34889 ft 465 kts 173°
2026-04-30 07:15 -2.66031 -73.44965 34889 ft 465 kts 173°
2026-04-30 07:15 -2.72423 -73.44224 34888 ft 465 kts 173°
2026-04-30 07:16 -2.78861 -73.43477 34866 ft 466 kts 173°
2026-04-30 07:16 -2.85300 -73.42728 34861 ft 466 kts 173°
2026-04-30 07:17 -2.91748 -73.41979 34860 ft 466 kts 173°
2026-04-30 07:18 -3.01361 -73.40863 34862 ft 466 kts 173°
2026-04-30 07:18 -3.07804 -73.40114 34859 ft 466 kts 173°
2026-04-30 07:19 -3.14234 -73.39365 34858 ft 465 kts 173°
2026-04-30 07:19 -3.20657 -73.38619 34861 ft 465 kts 173°
2026-04-30 07:20 -3.27077 -73.37874 34862 ft 464 kts 173°
2026-04-30 07:20 -3.33453 -73.37133 34860 ft 464 kts 173°
2026-04-30 07:21 -3.39869 -73.36387 34861 ft 464 kts 173°
2026-04-30 07:21 -3.46280 -73.35643 34862 ft 464 kts 173°
2026-04-30 07:22 -3.55858 -73.34528 34862 ft 464 kts 173°
2026-04-30 07:22 -3.62279 -73.33781 34862 ft 464 kts 173°
2026-04-30 07:23 -3.68701 -73.33034 34861 ft 465 kts 173°
2026-04-30 07:23 -3.75121 -73.32286 34860 ft 465 kts 173°
2026-04-30 07:24 -3.81423 -73.31110 34849 ft 464 kts 160°
2026-04-30 07:24 -3.87452 -73.28796 34861 ft 464 kts 158°
2026-04-30 07:25 -3.93458 -73.26398 34861 ft 465 kts 158°
2026-04-30 07:25 -3.99474 -73.24040 34860 ft 464 kts 158°
2026-04-30 07:26 -4.05502 -73.21711 34862 ft 464 kts 159°
2026-04-30 07:26 -4.11503 -73.19403 34860 ft 465 kts 159°
2026-04-30 07:27 -4.17547 -73.17077 34862 ft 465 kts 159°
2026-04-30 07:27 -4.23590 -73.14749 34861 ft 466 kts 158°
2026-04-30 07:28 -4.29638 -73.12417 34862 ft 466 kts 159°
2026-04-30 07:28 -4.35649 -73.10100 34861 ft 466 kts 159°
2026-04-30 07:29 -4.41697 -73.07769 34859 ft 466 kts 159°
2026-04-30 07:29 -4.47747 -73.05436 34862 ft 466 kts 159°
2026-04-30 07:30 -4.56827 -73.01934 34861 ft 466 kts 159°
2026-04-30 07:31 -4.62835 -72.99617 34861 ft 466 kts 159°
2026-04-30 07:31 -4.68887 -72.97281 34860 ft 466 kts 158°
2026-04-30 07:32 -4.74933 -72.94948 34861 ft 466 kts 159°
2026-04-30 07:32 -4.80946 -72.92628 34862 ft 466 kts 159°
2026-04-30 07:33 -4.87001 -72.90290 34861 ft 466 kts 159°
2026-04-30 07:33 -4.93055 -72.87952 34862 ft 466 kts 159°
2026-04-30 07:34 -4.99102 -72.85615 34858 ft 465 kts 159°
2026-04-30 07:34 -5.05152 -72.83279 34863 ft 466 kts 159°
2026-04-30 07:35 -5.11155 -72.80957 34861 ft 466 kts 158°
2026-04-30 07:35 -5.17199 -72.78604 34861 ft 466 kts 158°
2026-04-30 07:36 -5.23241 -72.76249 34862 ft 466 kts 158°
2026-04-30 07:36 -5.29280 -72.73894 34861 ft 466 kts 158°
2026-04-30 07:37 -5.35277 -72.71558 34861 ft 465 kts 158°
2026-04-30 07:37 -5.41312 -72.69204 34862 ft 465 kts 158°
2026-04-30 07:38 -5.47347 -72.66851 34860 ft 465 kts 158°
2026-04-30 07:38 -5.53382 -72.64500 34860 ft 465 kts 158°
2026-04-30 07:39 -5.59416 -72.62148 34865 ft 465 kts 158°
2026-04-30 07:39 -5.65405 -72.59811 34860 ft 465 kts 158°
2026-04-30 07:40 -5.71437 -72.57458 34857 ft 465 kts 158°
2026-04-30 07:40 -5.77462 -72.55107 34862 ft 464 kts 158°
2026-04-30 07:41 -5.83481 -72.52759 34860 ft 464 kts 158°
2026-04-30 07:41 -5.89452 -72.50427 34860 ft 463 kts 158°
2026-04-30 07:42 -5.95462 -72.48081 34862 ft 463 kts 158°
2026-04-30 07:42 -6.01463 -72.45737 34866 ft 463 kts 159°
2026-04-30 07:43 -6.07461 -72.43391 34869 ft 462 kts 159°
2026-04-30 07:43 -6.13417 -72.41064 34870 ft 462 kts 159°
2026-04-30 07:44 -6.19406 -72.38723 34872 ft 462 kts 159°
2026-04-30 07:44 -6.25398 -72.36382 34868 ft 462 kts 159°
2026-04-30 07:45 -6.31389 -72.34038 34870 ft 462 kts 159°
2026-04-30 07:45 -6.37383 -72.31693 34867 ft 462 kts 159°
2026-04-30 07:46 -6.43336 -72.29364 34871 ft 462 kts 159°
2026-04-30 07:46 -6.49329 -72.27020 34872 ft 463 kts 159°
2026-04-30 07:47 -6.55334 -72.24669 34871 ft 463 kts 159°
2026-04-30 07:47 -6.61334 -72.22320 34869 ft 463 kts 159°
2026-04-30 07:48 -6.67308 -72.19980 34872 ft 464 kts 159°
2026-04-30 07:48 -6.73323 -72.17624 34871 ft 464 kts 159°
2026-04-30 07:49 -6.79345 -72.15263 34867 ft 465 kts 159°
2026-04-30 07:49 -6.85379 -72.12896 34873 ft 465 kts 159°
2026-04-30 07:50 -6.91364 -72.10550 34871 ft 466 kts 159°
2026-04-30 07:50 -6.97412 -72.08178 34875 ft 466 kts 159°
2026-04-30 07:51 -7.03460 -72.05805 34869 ft 467 kts 159°
2026-04-30 07:51 -7.09512 -72.03430 34872 ft 467 kts 159°
2026-04-30 07:52 -7.15571 -72.01051 34869 ft 468 kts 159°
2026-04-30 07:52 -7.21598 -71.98685 34875 ft 468 kts 159°
2026-04-30 07:53 -7.27670 -71.96309 34868 ft 468 kts 159°
2026-04-30 07:53 -7.33741 -71.93936 34867 ft 468 kts 159°
2026-04-30 07:54 -7.39812 -71.91560 34874 ft 468 kts 159°
2026-04-30 07:54 -7.45878 -71.89185 34867 ft 468 kts 159°
2026-04-30 07:55 -7.51904 -71.86823 34872 ft 468 kts 159°
2026-04-30 07:55 -7.57962 -71.84449 34863 ft 467 kts 159°
2026-04-30 07:56 -7.64019 -71.82073 34872 ft 467 kts 159°
2026-04-30 07:56 -7.70074 -71.79697 34871 ft 467 kts 159°
2026-04-30 07:57 -7.76135 -71.77320 34869 ft 467 kts 159°
2026-04-30 07:57 -7.82146 -71.74960 34870 ft 467 kts 159°
2026-04-30 07:58 -7.88203 -71.72582 34870 ft 467 kts 159°
2026-04-30 07:58 -7.94263 -71.70203 34870 ft 467 kts 159°
2026-04-30 07:59 -8.00324 -71.67822 34871 ft 468 kts 159°
2026-04-30 07:59 -8.06390 -71.65438 34871 ft 468 kts 159°
2026-04-30 08:00 -8.15453 -71.61875 34870 ft 468 kts 159°
2026-04-30 08:00 -8.21523 -71.59487 34869 ft 468 kts 159°
2026-04-30 08:01 -8.27591 -71.57097 34882 ft 468 kts 159°
2026-04-30 08:01 -8.33619 -71.54726 34880 ft 468 kts 159°
2026-04-30 08:02 -8.42728 -71.51140 34881 ft 468 kts 159°
2026-04-30 08:03 -8.54844 -71.46366 34955 ft 467 kts 159°
2026-04-30 08:04 -8.60859 -71.44016 34970 ft 467 kts 159°
2026-04-30 08:04 -8.66919 -71.41656 34971 ft 467 kts 159°
2026-04-30 08:05 -8.72981 -71.39293 34973 ft 467 kts 159°
2026-04-30 08:05 -8.79050 -71.36924 34971 ft 467 kts 159°
2026-04-30 08:06 -8.85113 -71.34557 34984 ft 467 kts 159°
2026-04-30 08:06 -8.91145 -71.32201 34980 ft 468 kts 159°
2026-04-30 08:07 -8.97221 -71.29827 34983 ft 469 kts 159°
2026-04-30 08:07 -9.03311 -71.27444 34989 ft 469 kts 159°
2026-04-30 08:08 -9.09358 -71.25068 34985 ft 470 kts 159°
2026-04-30 08:08 -9.15448 -71.22662 34991 ft 470 kts 159°
2026-04-30 08:09 -9.21540 -71.20252 34996 ft 470 kts 159°
2026-04-30 08:09 -9.27637 -71.17841 34996 ft 470 kts 159°
2026-04-30 08:10 -9.33724 -71.15434 34998 ft 470 kts 159°
2026-04-30 08:10 -9.39767 -71.13044 34993 ft 469 kts 159°
2026-04-30 08:11 -9.45851 -71.10637 35013 ft 469 kts 159°
2026-04-30 08:11 -9.51919 -71.08234 35012 ft 468 kts 159°
2026-04-30 08:12 -9.57992 -71.05828 35010 ft 468 kts 159°
2026-04-30 08:12 -9.64014 -71.03443 35012 ft 467 kts 159°
2026-04-30 08:13 -9.70069 -71.01042 35023 ft 467 kts 159°
2026-04-30 08:13 -9.76123 -70.98641 35017 ft 467 kts 159°
2026-04-30 08:14 -9.82176 -70.96240 35021 ft 467 kts 159°
2026-04-30 08:14 -9.88189 -70.93850 35030 ft 467 kts 158°
2026-04-30 08:15 -9.94240 -70.91444 35025 ft 467 kts 158°
2026-04-30 08:15 -10.00285 -70.89038 35041 ft 466 kts 158°
2026-04-30 08:16 -10.06326 -70.86634 35064 ft 466 kts 159°
2026-04-30 08:16 -10.12313 -70.84248 35098 ft 466 kts 159°
2026-04-30 08:17 -10.18351 -70.81843 35113 ft 467 kts 159°
2026-04-30 08:17 -10.24412 -70.79428 35117 ft 469 kts 159°
2026-04-30 08:18 -10.30483 -70.77007 35116 ft 469 kts 159°
2026-04-30 08:18 -10.36528 -70.74594 35122 ft 470 kts 159°
2026-04-30 08:19 -10.42616 -70.72165 35122 ft 470 kts 159°
2026-04-30 08:19 -10.48712 -70.69732 35125 ft 471 kts 159°
2026-04-30 08:20 -10.53780 -70.67710 35129 ft 471 kts 159°
2026-04-30 08:20 -10.59873 -70.65275 35130 ft 470 kts 159°
2026-04-30 08:21 -10.66947 -70.62446 35139 ft 470 kts 159°
2026-04-30 08:21 -10.73031 -70.60014 35142 ft 470 kts 159°
2026-04-30 08:22 -10.78091 -70.57990 35150 ft 470 kts 159°
2026-04-30 08:22 -10.84174 -70.55555 35150 ft 470 kts 159°
2026-04-30 08:23 -10.91244 -70.52723 35156 ft 470 kts 159°
2026-04-30 08:23 -10.96337 -70.50683 35155 ft 469 kts 159°
2026-04-30 08:24 -11.02370 -70.48266 35162 ft 469 kts 159°
2026-04-30 08:24 -11.08447 -70.45829 35169 ft 469 kts 159°
2026-04-30 08:25 -11.14519 -70.43392 35174 ft 469 kts 159°
2026-04-30 08:25 -11.20595 -70.40953 35174 ft 470 kts 159°
2026-04-30 08:26 -11.26641 -70.38526 35184 ft 470 kts 159°
2026-04-30 08:26 -11.32726 -70.36083 35186 ft 471 kts 159°
2026-04-30 08:27 -11.38822 -70.33634 35203 ft 471 kts 159°
2026-04-30 08:27 -11.44924 -70.31182 35195 ft 472 kts 159°
2026-04-30 08:28 -11.50993 -70.28741 35203 ft 472 kts 159°
2026-04-30 08:28 -11.57105 -70.26281 35212 ft 472 kts 159°
2026-04-30 08:29 -11.63225 -70.23817 35214 ft 473 kts 159°
2026-04-30 08:29 -11.69352 -70.21349 35222 ft 474 kts 159°
2026-04-30 08:30 -11.75448 -70.18893 35224 ft 474 kts 159°
2026-04-30 08:30 -11.81587 -70.16419 35234 ft 475 kts 159°
2026-04-30 08:31 -11.87736 -70.13938 35236 ft 475 kts 159°
2026-04-30 08:31 -11.93878 -70.11458 35240 ft 474 kts 159°
2026-04-30 08:32 -12.00011 -70.08983 35246 ft 474 kts 159°
2026-04-30 08:32 -12.06093 -70.06525 35248 ft 473 kts 159°
2026-04-30 08:33 -12.12203 -70.04054 35256 ft 472 kts 159°
2026-04-30 08:33 -12.18314 -70.01584 35257 ft 472 kts 159°
2026-04-30 08:34 -12.24416 -69.99117 35272 ft 472 kts 159°
2026-04-30 08:34 -12.30471 -69.96666 35279 ft 471 kts 159°
2026-04-30 08:35 -12.36570 -69.94196 35270 ft 471 kts 159°
2026-04-30 08:35 -12.42670 -69.91724 35283 ft 471 kts 159°
2026-04-30 08:36 -12.48772 -69.89251 35282 ft 472 kts 159°
2026-04-30 08:36 -12.54831 -69.86792 35292 ft 472 kts 159°
2026-04-30 08:37 -12.60939 -69.84312 35297 ft 473 kts 159°
2026-04-30 08:37 -12.67061 -69.81829 35297 ft 474 kts 159°
2026-04-30 08:38 -12.73188 -69.79340 35305 ft 474 kts 159°
2026-04-30 08:38 -12.79284 -69.76864 35312 ft 475 kts 159°
2026-04-30 08:39 -12.85433 -69.74363 35313 ft 476 kts 159°
2026-04-30 08:39 -12.91597 -69.71855 35315 ft 477 kts 159°
2026-04-30 08:40 -12.97771 -69.69342 35321 ft 477 kts 159°
2026-04-30 08:40 -13.03946 -69.66827 35322 ft 478 kts 159°
2026-04-30 08:41 -13.10085 -69.64325 35330 ft 478 kts 159°
2026-04-30 08:41 -13.16268 -69.61804 35332 ft 478 kts 159°
2026-04-30 08:42 -13.22455 -69.59281 35339 ft 479 kts 159°
2026-04-30 08:42 -13.28605 -69.56771 35341 ft 479 kts 159°
2026-04-30 08:43 -13.34801 -69.54240 35342 ft 479 kts 159°
2026-04-30 08:43 -13.40989 -69.51711 35352 ft 479 kts 159°
2026-04-30 08:44 -13.47179 -69.49181 35352 ft 479 kts 159°
2026-04-30 08:44 -13.53331 -69.46663 35346 ft 479 kts 159°
2026-04-30 08:45 -13.59527 -69.44128 35368 ft 479 kts 159°
2026-04-30 08:45 -13.65718 -69.41593 35366 ft 479 kts 159°
2026-04-30 08:46 -13.71903 -69.39059 35371 ft 479 kts 159°
2026-04-30 08:46 -13.78041 -69.36542 35372 ft 478 kts 159°
2026-04-30 08:47 -13.84215 -69.34008 35363 ft 478 kts 159°
2026-04-30 08:47 -13.90385 -69.31475 35378 ft 478 kts 159°
2026-04-30 08:48 -13.96561 -69.28939 35386 ft 478 kts 159°
2026-04-30 08:48 -14.02705 -69.26414 35386 ft 479 kts 160°
2026-04-30 08:49 -14.08890 -69.23871 35392 ft 479 kts 160°
2026-04-30 08:49 -14.15082 -69.21312 35392 ft 479 kts 159°
2026-04-30 08:50 -14.21269 -69.18751 35386 ft 479 kts 159°
2026-04-30 08:50 -14.27401 -69.16212 35402 ft 478 kts 159°
2026-04-30 08:51 -14.33572 -69.13656 35417 ft 478 kts 159°
2026-04-30 08:51 -14.39761 -69.11091 35412 ft 480 kts 159°
2026-04-30 08:52 -14.45969 -69.08518 35429 ft 481 kts 159°
2026-04-30 08:52 -14.52147 -69.05972 35418 ft 481 kts 160°
2026-04-30 08:53 -14.58358 -69.03421 35425 ft 480 kts 160°
2026-04-30 08:53 -14.64566 -69.00865 35425 ft 481 kts 160°
2026-04-30 08:54 -14.70767 -68.98309 35440 ft 480 kts 159°
2026-04-30 08:54 -14.76923 -68.95770 35457 ft 479 kts 160°
2026-04-30 08:55 -14.83118 -68.93212 35459 ft 479 kts 160°
2026-04-30 08:55 -14.89314 -68.90651 35462 ft 480 kts 160°
2026-04-30 08:56 -14.95513 -68.88089 35462 ft 479 kts 160°
2026-04-30 08:56 -15.01659 -68.85548 35479 ft 479 kts 160°
2026-04-30 08:57 -15.07850 -68.82985 35476 ft 479 kts 160°
2026-04-30 08:57 -15.14031 -68.80426 35468 ft 478 kts 160°
2026-04-30 08:58 -15.20192 -68.77873 35491 ft 476 kts 160°
2026-04-30 08:58 -15.26303 -68.75339 35498 ft 477 kts 160°
2026-04-30 08:59 -15.32461 -68.72783 35499 ft 478 kts 160°
2026-04-30 08:59 -15.38635 -68.70215 35482 ft 479 kts 160°
2026-04-30 09:00 -15.44822 -68.67657 35523 ft 478 kts 160°
2026-04-30 09:00 -15.50948 -68.65109 35573 ft 478 kts 159°
2026-04-30 09:01 -15.57142 -68.62520 35544 ft 481 kts 160°
2026-04-30 09:01 -15.63369 -68.59929 35516 ft 483 kts 160°
2026-04-30 09:02 -15.72723 -68.56037 35528 ft 483 kts 160°
2026-04-30 09:02 -15.78912 -68.53457 35547 ft 481 kts 160°
2026-04-30 09:03 -15.85139 -68.50862 35561 ft 482 kts 160°
2026-04-30 09:03 -15.91372 -68.48262 35562 ft 483 kts 160°
2026-04-30 09:04 -15.97583 -68.45641 35583 ft 480 kts 159°
2026-04-30 09:04 -16.03724 -68.43048 35577 ft 479 kts 161°
2026-04-30 09:05 -16.09936 -68.40502 35582 ft 480 kts 160°
2026-04-30 09:05 -16.16155 -68.37931 35588 ft 481 kts 160°
2026-04-30 09:06 -16.22368 -68.35314 35585 ft 484 kts 161°
2026-04-30 09:06 -16.28575 -68.32754 35607 ft 481 kts 160°
2026-04-30 09:07 -16.34819 -68.30276 35631 ft 482 kts 161°
2026-04-30 09:07 -16.41034 -68.27586 35629 ft 484 kts 159°
2026-04-30 09:08 -16.47271 -68.24924 35600 ft 485 kts 161°
2026-04-30 09:08 -16.53499 -68.22405 35610 ft 482 kts 163°
2026-04-30 09:09 -16.59808 -68.20169 35602 ft 477 kts 165°
2026-04-30 09:09 -16.66124 -68.18023 35613 ft 478 kts 165°
2026-04-30 09:10 -16.72432 -68.15828 35618 ft 478 kts 164°
2026-04-30 09:10 -16.78715 -68.13615 35612 ft 482 kts 164°
2026-04-30 09:11 -16.85065 -68.11372 35598 ft 482 kts 164°
2026-04-30 09:11 -16.91413 -68.09123 35590 ft 481 kts 164°
2026-04-30 09:12 -16.97758 -68.06887 35581 ft 481 kts 164°
2026-04-30 09:12 -17.04073 -68.04652 35568 ft 482 kts 164°
2026-04-30 09:13 -17.10395 -68.02407 35555 ft 479 kts 164°
2026-04-30 09:13 -17.16710 -68.00164 35542 ft 479 kts 164°
2026-04-30 09:14 -17.23015 -67.97928 35532 ft 478 kts 164°
2026-04-30 09:14 -17.29274 -67.95714 35517 ft 477 kts 164°
2026-04-30 09:15 -17.35559 -67.93474 35496 ft 476 kts 166°
2026-04-30 09:15 -17.41880 -67.91348 35480 ft 480 kts 162°
2026-04-30 09:16 -17.48164 -67.88989 35463 ft 479 kts 164°
2026-04-30 09:16 -17.54440 -67.86779 35448 ft 479 kts 165°
2026-04-30 09:17 -17.60762 -67.84579 35432 ft 479 kts 165°
2026-04-30 09:17 -17.67076 -67.82362 35417 ft 478 kts 164°
2026-04-30 09:18 -17.73374 -67.80138 35409 ft 478 kts 164°
2026-04-30 09:18 -17.79673 -67.77911 35402 ft 477 kts 164°
2026-04-30 09:19 -17.85916 -67.75705 35386 ft 477 kts 164°
2026-04-30 09:19 -17.92211 -67.73476 35384 ft 477 kts 164°
2026-04-30 09:20 -17.98499 -67.71248 35379 ft 477 kts 164°
2026-04-30 09:20 -18.04752 -67.69032 35366 ft 478 kts 164°
2026-04-30 09:21 -18.11051 -67.66799 35366 ft 478 kts 165°
2026-04-30 09:21 -18.17323 -67.64533 35332 ft 477 kts 163°
2026-04-30 09:22 -18.23603 -67.62306 35336 ft 475 kts 165°
2026-04-30 09:22 -18.29901 -67.60184 35304 ft 478 kts 164°
2026-04-30 09:23 -18.36150 -67.57912 35322 ft 479 kts 164°
2026-04-30 09:23 -18.42448 -67.55632 35344 ft 479 kts 164°
2026-04-30 09:24 -18.48769 -67.53377 35348 ft 480 kts 165°
2026-04-30 09:24 -18.55104 -67.51119 35340 ft 481 kts 165°
2026-04-30 09:25 -18.61400 -67.48873 35334 ft 481 kts 165°
2026-04-30 09:25 -18.67747 -67.46629 35329 ft 481 kts 165°
2026-04-30 09:26 -18.74094 -67.44397 35319 ft 480 kts 165°
2026-04-30 09:26 -18.80434 -67.42166 35317 ft 480 kts 165°
2026-04-30 09:27 -18.86726 -67.39946 35314 ft 480 kts 165°
2026-04-30 09:27 -18.93061 -67.37707 35306 ft 480 kts 165°
2026-04-30 09:28 -18.99403 -67.35466 35302 ft 480 kts 165°
2026-04-30 09:28 -19.05747 -67.33223 35293 ft 481 kts 165°
2026-04-30 09:29 -19.12041 -67.30994 35294 ft 481 kts 165°
2026-04-30 09:29 -19.18384 -67.28747 35284 ft 481 kts 165°
2026-04-30 09:30 -19.24735 -67.26494 35275 ft 481 kts 165°
2026-04-30 09:30 -19.31088 -67.24240 35272 ft 482 kts 165°
2026-04-30 09:31 -19.37400 -67.21998 35265 ft 482 kts 165°
2026-04-30 09:31 -19.43760 -67.19737 35272 ft 482 kts 165°
2026-04-30 09:32 -19.50127 -67.17472 35255 ft 483 kts 165°
2026-04-30 09:32 -19.56499 -67.15203 35247 ft 483 kts 165°
2026-04-30 09:33 -19.62831 -67.12945 35246 ft 484 kts 165°
2026-04-30 09:33 -19.69206 -67.10672 35245 ft 483 kts 165°
2026-04-30 09:34 -19.75576 -67.08398 35235 ft 483 kts 165°
2026-04-30 09:34 -19.81948 -67.06121 35234 ft 483 kts 165°
2026-04-30 09:35 -19.88272 -67.03859 35228 ft 483 kts 165°
2026-04-30 09:35 -19.94631 -67.01582 35236 ft 482 kts 165°
2026-04-30 09:36 -20.00966 -66.99312 35312 ft 479 kts 166°
2026-04-30 09:36 -20.07296 -66.97046 35308 ft 480 kts 166°
2026-04-30 09:37 -20.13599 -66.94817 35319 ft 481 kts 166°
2026-04-30 09:37 -20.19973 -66.92571 35312 ft 483 kts 166°
2026-04-30 09:38 -20.26369 -66.90312 35235 ft 486 kts 166°
2026-04-30 09:38 -20.32812 -66.88030 35169 ft 488 kts 166°
2026-04-30 09:39 -20.39249 -66.85748 35162 ft 487 kts 166°
2026-04-30 09:39 -20.45626 -66.83471 35161 ft 487 kts 164°
2026-04-30 09:40 -20.51926 -66.80787 35164 ft 487 kts 161°
2026-04-30 09:40 -20.58172 -66.77966 35166 ft 487 kts 161°
2026-04-30 09:41 -20.64373 -66.75202 35148 ft 486 kts 161°
2026-04-30 09:41 -20.70616 -66.72450 35145 ft 485 kts 161°
2026-04-30 09:42 -20.76851 -66.69700 35151 ft 485 kts 161°
2026-04-30 09:42 -20.83091 -66.66953 35153 ft 485 kts 162°
2026-04-30 09:43 -20.89292 -66.64229 35145 ft 485 kts 162°
2026-04-30 09:43 -20.95536 -66.61478 35151 ft 486 kts 162°
2026-04-30 09:44 -21.01786 -66.58720 35150 ft 486 kts 161°
2026-04-30 09:44 -21.08046 -66.55957 35149 ft 487 kts 162°
2026-04-30 09:45 -21.14321 -66.53187 35147 ft 488 kts 162°
2026-04-30 09:45 -21.20558 -66.50429 35139 ft 489 kts 161°
2026-04-30 09:46 -21.26842 -66.47648 35152 ft 489 kts 162°
2026-04-30 09:46 -21.33134 -66.44860 35142 ft 489 kts 162°
2026-04-30 09:47 -21.39422 -66.42072 35154 ft 489 kts 162°
2026-04-30 09:47 -21.45718 -66.39279 35146 ft 490 kts 162°
2026-04-30 09:48 -21.51967 -66.36501 35145 ft 489 kts 162°
2026-04-30 09:48 -21.58253 -66.33706 35138 ft 489 kts 162°
2026-04-30 09:49 -21.64537 -66.30910 35148 ft 489 kts 162°
2026-04-30 09:49 -21.70820 -66.28109 35120 ft 488 kts 162°
2026-04-30 09:50 -21.77046 -66.25331 35146 ft 487 kts 162°
2026-04-30 09:50 -21.83306 -66.22551 35147 ft 487 kts 162°
2026-04-30 09:51 -21.89596 -66.19823 35144 ft 487 kts 162°
2026-04-30 09:51 -21.95893 -66.17098 35134 ft 489 kts 162°
2026-04-30 09:52 -22.02160 -66.14374 35110 ft 489 kts 162°
2026-04-30 09:52 -22.08463 -66.11625 35103 ft 489 kts 162°
2026-04-30 09:53 -22.14761 -66.08877 35103 ft 488 kts 162°
2026-04-30 09:53 -22.21057 -66.06130 35093 ft 487 kts 162°
2026-04-30 09:54 -22.27340 -66.03392 35102 ft 487 kts 162°
2026-04-30 09:54 -22.33577 -66.00673 35107 ft 487 kts 162°
2026-04-30 09:55 -22.39852 -65.97934 35103 ft 487 kts 162°
2026-04-30 09:55 -22.46131 -65.95190 35104 ft 487 kts 162°
2026-04-30 09:56 -22.52421 -65.92437 35101 ft 487 kts 162°
2026-04-30 09:56 -22.58662 -65.89704 35111 ft 487 kts 163°
2026-04-30 09:57 -22.64949 -65.86947 35105 ft 487 kts 162°
2026-04-30 09:57 -22.71220 -65.84194 35104 ft 485 kts 163°
2026-04-30 09:58 -22.77479 -65.81445 35084 ft 485 kts 163°
2026-04-30 09:58 -22.83739 -65.78692 35102 ft 486 kts 163°
2026-04-30 09:59 -22.96233 -65.73191 35094 ft 487 kts 163°
2026-04-30 10:00 -23.05646 -65.69036 35085 ft 488 kts 163°
2026-04-30 10:01 -23.15023 -65.64893 35082 ft 487 kts 163°
2026-04-30 10:02 -23.24435 -65.60728 35085 ft 487 kts 163°
2026-04-30 10:02 -23.30698 -65.57953 35092 ft 486 kts 163°
2026-04-30 10:03 -23.36917 -65.55195 35092 ft 486 kts 163°
2026-04-30 10:03 -23.43186 -65.52413 35073 ft 487 kts 163°
2026-04-30 10:04 -23.49442 -65.49628 35071 ft 484 kts 163°
2026-04-30 10:04 -23.55667 -65.46860 35072 ft 483 kts 163°
2026-04-30 10:05 -23.61882 -65.44092 35075 ft 482 kts 163°
2026-04-30 10:05 -23.68036 -65.41347 35115 ft 482 kts 163°
2026-04-30 10:06 -23.74261 -65.38570 35102 ft 484 kts 163°
2026-04-30 10:06 -23.80511 -65.35775 35064 ft 485 kts 163°
2026-04-30 10:07 -23.86742 -65.32983 35088 ft 483 kts 163°
2026-04-30 10:07 -23.92925 -65.30215 35077 ft 484 kts 163°
2026-04-30 10:08 -23.99156 -65.27422 35081 ft 485 kts 163°
2026-04-30 10:08 -24.05399 -65.24619 35079 ft 485 kts 163°
2026-04-30 10:09 -24.11642 -65.21813 35090 ft 485 kts 163°
2026-04-30 10:09 -24.17899 -65.18999 35070 ft 486 kts 163°
2026-04-30 10:10 -24.24102 -65.16205 35086 ft 486 kts 163°
2026-04-30 10:10 -24.30355 -65.13384 35076 ft 486 kts 163°
2026-04-30 10:11 -24.36602 -65.10565 35070 ft 485 kts 163°
2026-04-30 10:11 -24.42795 -65.07597 35068 ft 487 kts 160°
2026-04-30 10:12 -24.48818 -65.04293 35075 ft 487 kts 158°
2026-04-30 10:12 -24.54852 -65.00915 35067 ft 487 kts 158°
2026-04-30 10:13 -24.60894 -64.97576 35082 ft 485 kts 159°
2026-04-30 10:13 -24.66927 -64.94274 35086 ft 484 kts 159°
2026-04-30 10:14 -24.72965 -64.90974 35095 ft 485 kts 159°
2026-04-30 10:14 -24.81994 -64.86027 35075 ft 486 kts 159°
2026-04-30 10:15 -24.88029 -64.82712 35091 ft 484 kts 159°
2026-04-30 10:15 -24.94064 -64.79396 35062 ft 485 kts 158°
2026-04-30 10:16 -25.00055 -64.76099 35080 ft 484 kts 158°
2026-04-30 10:17 -25.09101 -64.71116 35080 ft 483 kts 158°
2026-04-30 10:17 -25.18125 -64.66137 35090 ft 484 kts 158°
2026-04-30 10:18 -25.24142 -64.62811 35076 ft 484 kts 158°
2026-04-30 10:19 -25.33138 -64.57832 35078 ft 484 kts 158°
2026-04-30 10:19 -25.39161 -64.54494 35074 ft 485 kts 158°
2026-04-30 10:20 -25.45191 -64.51149 35066 ft 485 kts 158°
2026-04-30 10:20 -25.54200 -64.46145 35062 ft 486 kts 158°
2026-04-30 10:21 -25.60237 -64.42785 35059 ft 485 kts 158°
2026-04-30 10:21 -25.66266 -64.39427 35050 ft 485 kts 158°
2026-04-30 10:22 -25.72289 -64.36069 35043 ft 484 kts 158°
2026-04-30 10:22 -25.78303 -64.32712 35043 ft 484 kts 158°
2026-04-30 10:23 -25.84273 -64.29376 35036 ft 483 kts 158°
2026-04-30 10:23 -25.90278 -64.26015 35035 ft 483 kts 158°
2026-04-30 10:24 -25.96276 -64.22656 35042 ft 483 kts 158°
2026-04-30 10:24 -26.02270 -64.19294 35035 ft 483 kts 158°
2026-04-30 10:25 -26.08231 -64.15945 35035 ft 483 kts 158°
2026-04-30 10:25 -26.14228 -64.12569 35027 ft 483 kts 158°
2026-04-30 10:26 -26.20225 -64.09173 35028 ft 484 kts 158°
2026-04-30 10:26 -26.26228 -64.05781 35030 ft 484 kts 158°
2026-04-30 10:27 -26.32195 -64.02433 35028 ft 484 kts 158°
2026-04-30 10:27 -26.38208 -63.99056 35021 ft 484 kts 158°
2026-04-30 10:28 -26.44216 -63.95673 35017 ft 484 kts 158°
2026-04-30 10:28 -26.50220 -63.92286 35019 ft 483 kts 158°
2026-04-30 10:29 -26.56219 -63.88897 35021 ft 483 kts 158°
2026-04-30 10:29 -26.62171 -63.85534 35019 ft 482 kts 158°
2026-04-30 10:30 -26.68152 -63.82148 35017 ft 481 kts 158°
2026-04-30 10:30 -26.74118 -63.78751 35019 ft 481 kts 157°
2026-04-30 10:31 -26.80061 -63.75332 35009 ft 480 kts 157°
2026-04-30 10:31 -26.85950 -63.71938 35005 ft 479 kts 157°
2026-04-30 10:32 -26.91866 -63.68528 35002 ft 478 kts 157°
2026-04-30 10:32 -26.97771 -63.65123 34995 ft 477 kts 157°
2026-04-30 10:33 -27.03663 -63.61722 35004 ft 476 kts 157°
2026-04-30 10:33 -27.09505 -63.58349 34997 ft 475 kts 157°
2026-04-30 10:34 -27.15380 -63.54951 35004 ft 475 kts 157°
2026-04-30 10:34 -27.21249 -63.51553 35001 ft 474 kts 157°
2026-04-30 10:35 -27.27110 -63.48154 34995 ft 474 kts 157°
2026-04-30 10:35 -27.32924 -63.44780 35003 ft 473 kts 157°
2026-04-30 10:36 -27.38775 -63.41379 35002 ft 474 kts 157°
2026-04-30 10:36 -27.44633 -63.37970 35001 ft 474 kts 157°
2026-04-30 10:37 -27.50490 -63.34558 34998 ft 474 kts 157°
2026-04-30 10:37 -27.56307 -63.31164 34996 ft 474 kts 157°
2026-04-30 10:38 -27.62161 -63.27745 34998 ft 474 kts 156°
2026-04-30 10:38 -27.68014 -63.24323 34996 ft 474 kts 156°
2026-04-30 10:39 -27.73823 -63.20922 35006 ft 474 kts 156°
2026-04-30 10:39 -27.79675 -63.17495 34995 ft 473 kts 156°
2026-04-30 10:40 -27.85519 -63.14065 34986 ft 474 kts 156°
2026-04-30 10:40 -27.91366 -63.10630 34985 ft 474 kts 156°
2026-04-30 10:41 -27.97172 -63.07213 34981 ft 474 kts 156°
2026-04-30 10:41 -28.03013 -63.03771 34982 ft 473 kts 156°
2026-04-30 10:42 -28.08846 -63.00331 34978 ft 473 kts 156°
2026-04-30 10:42 -28.14672 -62.96892 34980 ft 472 kts 156°
2026-04-30 10:43 -28.20482 -62.93457 34979 ft 471 kts 156°
2026-04-30 10:43 -28.26247 -62.90044 34980 ft 470 kts 156°
2026-04-30 10:44 -28.32035 -62.86612 34983 ft 469 kts 156°
2026-04-30 10:44 -28.37819 -62.83181 34983 ft 469 kts 156°
2026-04-30 10:45 -28.43594 -62.79750 34981 ft 468 kts 156°
2026-04-30 10:45 -28.49318 -62.76346 34980 ft 467 kts 156°
2026-04-30 10:46 -28.55075 -62.72918 34980 ft 467 kts 156°
2026-04-30 10:46 -28.60834 -62.69484 34984 ft 467 kts 156°
2026-04-30 10:47 -28.66590 -62.66045 34986 ft 467 kts 156°
2026-04-30 10:47 -28.72346 -62.62603 35005 ft 468 kts 156°
2026-04-30 10:48 -28.78072 -62.59176 35002 ft 468 kts 156°
2026-04-30 10:48 -28.83836 -62.55721 35004 ft 468 kts 156°
2026-04-30 10:49 -28.89605 -62.52240 35000 ft 469 kts 155°
2026-04-30 10:49 -28.95370 -62.48747 35006 ft 469 kts 155°
2026-04-30 10:50 -29.01096 -62.45276 35006 ft 469 kts 155°
2026-04-30 10:50 -29.06856 -62.41781 34993 ft 469 kts 155°
2026-04-30 10:51 -29.12602 -62.38289 34994 ft 467 kts 155°
2026-04-30 10:51 -29.18334 -62.34804 35006 ft 466 kts 155°
2026-04-30 10:52 -29.24054 -62.31320 35006 ft 465 kts 155°
2026-04-30 10:52 -29.29719 -62.27867 35010 ft 464 kts 155°
2026-04-30 10:53 -29.35417 -62.24388 35010 ft 464 kts 155°
2026-04-30 10:53 -29.41106 -62.20909 35010 ft 463 kts 155°
2026-04-30 10:54 -29.46789 -62.17431 35008 ft 462 kts 155°
2026-04-30 10:54 -29.52427 -62.13977 35009 ft 462 kts 155°
2026-04-30 10:55 -29.58089 -62.10501 35008 ft 462 kts 155°
2026-04-30 10:55 -29.63750 -62.07022 35006 ft 461 kts 155°
2026-04-30 10:56 -29.69371 -62.03565 35011 ft 461 kts 155°
2026-04-30 10:56 -29.75020 -62.00084 35009 ft 461 kts 155°
2026-04-30 10:57 -29.80665 -61.96600 35006 ft 461 kts 155°
2026-04-30 10:57 -29.86320 -61.93116 35006 ft 460 kts 157°
2026-04-30 10:58 -29.92255 -61.90537 35012 ft 455 kts 167°
2026-04-30 10:58 -29.98270 -61.88423 35007 ft 455 kts 167°
2026-04-30 10:59 -30.04323 -61.86279 35006 ft 455 kts 167°
2026-04-30 10:59 -30.10377 -61.84082 35014 ft 456 kts 167°
2026-04-30 11:00 -30.16425 -61.81865 35010 ft 456 kts 167°
2026-04-30 11:00 -30.22470 -61.79646 35007 ft 456 kts 167°
2026-04-30 11:01 -30.28483 -61.77438 35010 ft 456 kts 167°
2026-04-30 11:01 -30.34532 -61.75214 35011 ft 456 kts 167°
2026-04-30 11:02 -30.40584 -61.72986 35005 ft 456 kts 167°
2026-04-30 11:02 -30.46631 -61.70757 35012 ft 456 kts 167°
2026-04-30 11:03 -30.52642 -61.68538 35012 ft 456 kts 167°
2026-04-30 11:04 -30.61704 -61.65193 35011 ft 455 kts 167°
2026-04-30 11:04 -30.67741 -61.62970 35013 ft 454 kts 167°
2026-04-30 11:05 -30.73722 -61.60764 35018 ft 454 kts 167°
2026-04-30 11:05 -30.79737 -61.58542 35016 ft 454 kts 168°
2026-04-30 11:06 -30.85746 -61.56319 35018 ft 453 kts 168°
2026-04-30 11:06 -30.91751 -61.54093 35020 ft 452 kts 168°
2026-04-30 11:07 -30.97741 -61.51868 35022 ft 452 kts 168°
2026-04-30 11:07 -31.03684 -61.49661 35021 ft 452 kts 168°
2026-04-30 11:08 -31.09672 -61.47434 35016 ft 452 kts 168°
2026-04-30 11:08 -31.15661 -61.45205 35020 ft 452 kts 168°
2026-04-30 11:09 -31.20638 -61.43348 35015 ft 452 kts 168°
2026-04-30 11:09 -31.27608 -61.40743 35020 ft 452 kts 168°
2026-04-30 11:10 -31.33604 -61.38499 35018 ft 453 kts 168°
2026-04-30 11:10 -31.38588 -61.36616 35020 ft 453 kts 168°
2026-04-30 11:11 -31.44591 -61.34338 35017 ft 453 kts 168°
2026-04-30 11:11 -31.49923 -61.32315 35019 ft 453 kts 168°
2026-04-30 11:12 -31.54950 -61.30406 35018 ft 453 kts 168°
2026-04-30 11:12 -31.60914 -61.28139 35019 ft 453 kts 168°
2026-04-30 11:13 -31.66908 -61.25856 35018 ft 453 kts 168°
2026-04-30 11:13 -31.73866 -61.23204 35016 ft 452 kts 168°
2026-04-30 11:14 -31.78876 -61.21291 35018 ft 452 kts 168°
2026-04-30 11:14 -31.84814 -61.19021 35018 ft 451 kts 168°
2026-04-30 11:15 -31.90785 -61.16736 35017 ft 451 kts 168°
2026-04-30 11:15 -31.96757 -61.14448 35022 ft 451 kts 168°
2026-04-30 11:16 -32.02732 -61.12155 35022 ft 452 kts 169°
2026-04-30 11:16 -32.08668 -61.09874 35016 ft 451 kts 169°
2026-04-30 11:17 -32.14627 -61.07580 35018 ft 451 kts 169°
2026-04-30 11:17 -32.20583 -61.05285 35016 ft 450 kts 169°
2026-04-30 11:18 -32.26527 -61.02992 35019 ft 449 kts 169°
2026-04-30 11:18 -32.35390 -60.99566 35016 ft 448 kts 169°
2026-04-30 11:19 -32.41311 -60.97273 35017 ft 447 kts 170°
2026-04-30 11:19 -32.47210 -60.94984 35017 ft 446 kts 170°
2026-04-30 11:20 -32.53123 -60.92689 35018 ft 446 kts 170°
2026-04-30 11:20 -32.59019 -60.90397 35019 ft 446 kts 170°
2026-04-30 11:21 -32.64877 -60.88116 35018 ft 446 kts 170°
2026-04-30 11:21 -32.70769 -60.85820 35020 ft 446 kts 170°
2026-04-30 11:22 -32.76669 -60.83515 35021 ft 446 kts 170°
2026-04-30 11:22 -32.82560 -60.81210 35015 ft 446 kts 170°
2026-04-30 11:23 -32.88456 -60.78903 35019 ft 446 kts 170°
2026-04-30 11:23 -32.94133 -60.75800 35025 ft 458 kts 158°
2026-04-30 11:24 -32.96890 -60.73887 35016 ft 459 kts 157°
2026-04-30 11:24 -33.02384 -60.69993 35015 ft 459 kts 157°
2026-04-30 11:25 -33.10630 -60.64224 35014 ft 457 kts 158°
2026-04-30 11:26 -33.21581 -60.56644 35016 ft 456 kts 158°
2026-04-30 11:26 -33.24324 -60.54742 34841 ft 458 kts 158°
2026-04-30 11:26 -33.27082 -60.52830 34414 ft 457 kts 158°
2026-04-30 11:27 -33.29813 -60.50929 34005 ft 452 kts 158°
2026-04-30 11:27 -33.32522 -60.49042 33585 ft 449 kts 158°
2026-04-30 11:27 -33.35210 -60.47170 33183 ft 446 kts 159°
2026-04-30 11:27 -33.37845 -60.45334 32760 ft 442 kts 159°
2026-04-30 11:28 -33.43119 -60.41659 31947 ft 436 kts 159°
2026-04-30 11:28 -33.45731 -60.39837 31543 ft 432 kts 159°
2026-04-30 11:28 -33.48315 -60.38033 31139 ft 429 kts 159°
2026-04-30 11:29 -33.50886 -60.36237 30745 ft 426 kts 159°
2026-04-30 11:29 -33.53432 -60.34457 30342 ft 422 kts 159°
2026-04-30 11:29 -33.58471 -60.30932 29547 ft 416 kts 159°
2026-04-30 11:30 -33.63395 -60.27482 28729 ft 409 kts 159°
2026-04-30 11:30 -33.65842 -60.25766 28318 ft 406 kts 159°
2026-04-30 11:30 -33.68271 -60.24062 27910 ft 403 kts 159°
2026-04-30 11:31 -33.70680 -60.22372 27502 ft 400 kts 159°
2026-04-30 11:31 -33.73077 -60.20690 27091 ft 397 kts 159°
2026-04-30 11:31 -33.75452 -60.19018 26694 ft 394 kts 159°
2026-04-30 11:31 -33.77810 -60.17359 26291 ft 391 kts 159°
2026-04-30 11:32 -33.80118 -60.15734 25898 ft 388 kts 159°
2026-04-30 11:32 -33.82413 -60.14026 25495 ft 391 kts 153°
2026-04-30 11:32 -33.84487 -60.11859 25100 ft 399 kts 142°
2026-04-30 11:33 -33.87826 -60.06441 24331 ft 403 kts 131°
2026-04-30 11:33 -33.89359 -60.03626 23934 ft 401 kts 130°
2026-04-30 11:33 -33.90881 -60.00817 23549 ft 399 kts 131°
2026-04-30 11:33 -33.92396 -59.98036 23163 ft 396 kts 131°
2026-04-30 11:34 -33.93906 -59.95285 22779 ft 393 kts 131°
2026-04-30 11:34 -33.95417 -59.92550 22398 ft 390 kts 131°
2026-04-30 11:34 -33.96899 -59.89877 22020 ft 388 kts 131°
2026-04-30 11:34 -33.98393 -59.87185 21641 ft 385 kts 131°
2026-04-30 11:35 -33.99878 -59.84513 21264 ft 383 kts 131°
2026-04-30 11:35 -34.01355 -59.81854 20884 ft 381 kts 131°
2026-04-30 11:35 -34.02824 -59.79207 20508 ft 378 kts 131°
2026-04-30 11:35 -34.04282 -59.76579 20133 ft 377 kts 131°
2026-04-30 11:36 -34.05735 -59.73960 19756 ft 374 kts 131°
2026-04-30 11:36 -34.07176 -59.71356 19382 ft 372 kts 131°
2026-04-30 11:36 -34.08610 -59.68764 19015 ft 370 kts 131°
2026-04-30 11:36 -34.10016 -59.66221 18651 ft 368 kts 130°
2026-04-30 11:37 -34.11432 -59.63656 18274 ft 367 kts 131°
2026-04-30 11:37 -34.12843 -59.61103 17908 ft 365 kts 130°
2026-04-30 11:37 -34.14244 -59.58561 17544 ft 363 kts 130°
2026-04-30 11:37 -34.15635 -59.56035 17180 ft 360 kts 130°
2026-04-30 11:38 -34.17016 -59.53528 16821 ft 358 kts 130°
2026-04-30 11:38 -34.18389 -59.51034 16461 ft 356 kts 130°
2026-04-30 11:38 -34.19752 -59.48557 16105 ft 353 kts 130°
2026-04-30 11:38 -34.21107 -59.46091 15747 ft 351 kts 129°
2026-04-30 11:39 -34.22500 -59.43750 15379 ft 343 kts 140°
2026-04-30 11:39 -34.24247 -59.41866 15059 ft 334 kts 147°
2026-04-30 11:39 -34.26035 -59.40099 14699 ft 331 kts 148°
2026-04-30 11:39 -34.27820 -59.38356 14346 ft 328 kts 148°
2026-04-30 11:40 -34.29589 -59.36622 14010 ft 326 kts 147°
2026-04-30 11:40 -34.31340 -59.34892 13663 ft 324 kts 147°
2026-04-30 11:40 -34.33074 -59.33170 13321 ft 322 kts 146°
2026-04-30 11:40 -34.34792 -59.31455 12981 ft 319 kts 146°
2026-04-30 11:41 -34.36496 -59.29749 12643 ft 317 kts 146°
2026-04-30 11:41 -34.38166 -59.28073 12311 ft 314 kts 146°
2026-04-30 11:41 -34.39842 -59.26388 11972 ft 312 kts 146°
2026-04-30 11:41 -34.41504 -59.24716 11642 ft 310 kts 145°
2026-04-30 11:42 -34.43156 -59.23053 11309 ft 307 kts 145°
2026-04-30 11:42 -34.44793 -59.21403 10976 ft 305 kts 144°
2026-04-30 11:42 -34.46419 -59.19764 10647 ft 303 kts 144°
2026-04-30 11:42 -34.48030 -59.18139 10320 ft 301 kts 144°
2026-04-30 11:43 -34.49622 -59.16532 10147 ft 293 kts 143°
2026-04-30 11:43 -34.51153 -59.14983 9977 ft 286 kts 143°
2026-04-30 11:43 -34.52601 -59.13521 9687 ft 285 kts 143°
2026-04-30 11:43 -34.54120 -59.11985 9398 ft 283 kts 143°
2026-04-30 11:44 -34.55630 -59.10459 9098 ft 282 kts 143°
2026-04-30 11:44 -34.57130 -59.08942 8810 ft 281 kts 142°
2026-04-30 11:44 -34.58624 -59.07428 8516 ft 279 kts 142°
2026-04-30 11:44 -34.60112 -59.05920 8217 ft 278 kts 142°
2026-04-30 11:45 -34.61590 -59.04422 7928 ft 276 kts 142°
2026-04-30 11:45 -34.63062 -59.02930 7634 ft 275 kts 142°
2026-04-30 11:45 -34.64506 -59.01466 7345 ft 274 kts 142°
2026-04-30 11:45 -34.65964 -58.99986 7053 ft 273 kts 142°
2026-04-30 11:46 -34.67414 -58.98515 6759 ft 271 kts 142°
2026-04-30 11:46 -34.68857 -58.97048 6466 ft 270 kts 142°
2026-04-30 11:46 -34.70290 -58.95590 6180 ft 269 kts 141°
2026-04-30 11:46 -34.71722 -58.94134 5890 ft 268 kts 141°
2026-04-30 11:47 -34.73148 -58.92683 5608 ft 266 kts 141°
2026-04-30 11:47 -34.74568 -58.91238 5315 ft 266 kts 141°
2026-04-30 11:47 -34.75833 -58.89624 5079 ft 265 kts 120°
2026-04-30 11:47 -34.76447 -58.87554 4765 ft 265 kts 101°
2026-04-30 11:48 -34.76781 -58.85361 4483 ft 264 kts 99°
2026-04-30 11:48 -34.77112 -58.83169 4188 ft 263 kts 100°
2026-04-30 11:48 -34.77445 -58.81015 3889 ft 255 kts 100°
2026-04-30 11:48 -34.77773 -58.78932 3613 ft 247 kts 100°
2026-04-30 11:49 -34.78094 -58.76914 3330 ft 240 kts 100°
2026-04-30 11:49 -34.78405 -58.74972 3097 ft 227 kts 99°
2026-04-30 11:49 -34.78717 -58.73146 2880 ft 212 kts 102°
2026-04-30 11:49 -34.79034 -58.71487 2693 ft 199 kts 101°
2026-04-30 11:50 -34.79326 -58.69878 2451 ft 189 kts 101°
2026-04-30 11:50 -34.79595 -58.68363 2195 ft 178 kts 101°
2026-04-30 11:50 -34.79848 -58.66934 1973 ft 167 kts 101°
2026-04-30 11:50 -34.80084 -58.65602 1752 ft 156 kts 101°
2026-04-30 11:51 -34.80300 -58.64377 1557 ft 144 kts 101°
2026-04-30 11:51 -34.80510 -58.63197 1377 ft 143 kts 101°
2026-04-30 11:51 -34.80718 -58.62022 1186 ft 141 kts 102°
2026-04-30 11:51 -34.80922 -58.60875 1003 ft 140 kts 102°
2026-04-30 11:52 -34.81117 -58.59778 827 ft 140 kts 102°
2026-04-30 11:52 -34.81130 -58.59701 818 ft 141 kts 102°
2026-04-30 11:52 -34.81272 -58.58904 687 ft 141 kts 102°
2026-04-30 11:52 -34.81476 -58.57758 508 ft 144 kts 102°
2026-04-30 11:53 -34.81687 -58.56576 315 ft 142 kts 102°
2026-04-30 11:53 -34.81894 -58.55409 138 ft 139 kts 102°
2026-04-30 11:53 -34.82027 -58.54659 82 ft 133 kts 102°
2026-04-30 11:53 -34.82164 -58.53896 69 ft 112 kts 102°
2026-04-30 11:54 -34.82294 -58.53167 67 ft 56 kts 103°
2026-04-30 11:54 -34.82336 -58.52940 73 ft 17 kts 99°
2026-04-30 11:54 -34.82321 -58.52896 67 ft 6 kts 32°
2026-04-30 11:54 -34.82280 -58.52891 66 ft 6 kts 352°
2026-04-30 11:55 -34.82227 -58.52907 70 ft 11 kts 345°
2026-04-30 11:55 -34.82114 -58.52945 70 ft 22 kts 345°
2026-04-30 11:55 -34.82036 -58.53004 64 ft 14 kts 297°
2026-04-30 11:55 -34.82003 -58.53127 65 ft 12 kts 283°
2026-04-30 11:56 -34.82001 -58.53139 72 ft 0 kts 283°
2026-04-30 11:56 -34.82000 -58.53145 72 ft 3 kts 283°
2026-04-30 11:57 -34.81990 -58.53194 67 ft 10 kts 283°
2026-04-30 11:57 -34.81970 -58.53301 67 ft 16 kts 284°
2026-04-30 11:57 -34.81940 -58.53442 72 ft 18 kts 284°
2026-04-30 11:57 -34.81917 -58.53549 72 ft 12 kts 283°
2026-04-30 11:58 -34.81875 -58.53640 68 ft 14 kts 320°
2026-04-30 11:58 -34.81780 -58.53700 64 ft 16 kts 335°
2026-04-30 11:58 -34.81683 -58.53759 69 ft 14 kts 324°
2026-04-30 11:58 -34.81606 -58.53819 64 ft 12 kts 334°
2026-04-30 11:59 -34.81526 -58.53848 71 ft 12 kts 347°
2026-04-30 11:59 -34.81487 -58.53857 71 ft 0 kts 348°